Regional Weather Roundup
Issued by NWS

Home | Current Version | Previous Version | Graphics & Text | Print | Product List | Glossary On
Versions: 1 2 3 4 5 6 7 8 9 10 11 12 13 14 15 16 17 18 19 20 21 22 23 24 25 26 27 28 29 30 31 32 33 34 35 36 37 38 39 40 41 42 43 44 45 46 47 48 49 50
000
ASUS43 KLOT 171506
RWRIL

ILLINOIS REGIONAL WEATHER ROUNDUP
NATIONAL WEATHER SERVICE CHICAGO/ROMEOVILLE IL
1000 AM CDT THU APR 17 2014

NOTE: "FAIR" INDICATES FEW OR NO CLOUDS BELOW 12,000 FEET WITH NO
SIGNIFICANT WEATHER AND/OR OBSTRUCTIONS TO VISIBILITY.

* THESE STATIONS ARE NOT UNDER NWS QUALITY CONTROL. THEY ALSO MAY NOT
  REPORT WEATHER SUCH AS PRECIPITATION OR FOG.

ILZ001-002-007-009-015-016-024-171600-
NORTHWEST ILLINOIS

CITY           SKY/WX    TMP DP  RH WIND       PRES   REMARKS
MOLINE         CLOUDY    43  33  68 W14       30.20R
STERLING*      CLOUDY    46  36  66 W14       30.18R
SAVANNA*       CLOUDY    43  34  70 W10       30.18R
$$

ILZ003-004-008-010-011-017-018-171600-
NORTH CENTRAL ILLINOIS

CITY           SKY/WX    TMP DP  RH WIND       PRES   REMARKS
ROCKFORD       CLOUDY    47  37  68 SW12      30.16R
FREEPORT*      CLOUDY    44  37  78 W12       30.17R
ROCHELLE*      PTSUNNY   48  38  68 W17       30.17R
DE KALB*       PTSUNNY   46  37  69 W17G24    30.16R
$$

ILZ005-006-012>014-019>023-171600-
NORTHEAST ILLINOIS

CITY           SKY/WX    TMP DP  RH WIND       PRES   REMARKS
CHICAGO-OHARE  MOSUNNY   51  31  46 SW18      30.15R
CHICAGO-MIDWAY PTSUNNY   52  32  46 SW16      30.17R
AURORA         MOSUNNY   51  36  56 SW12      30.16R
LANSING*       SUNNY     53  32  45 SW17      30.19S
WAUKEGAN       SUNNY     51  32  48 SW13G22   30.12R
DUPAGE AIRPORT SUNNY     51  34  52 SW15G25   30.16R
KANKAKEE*      SUNNY     54  35  47 SW14G23   30.21R
WHEELING       SUNNY     51  32  48 SW16G24   30.16R
MORRIS*        SUNNY     53  30  41 W10G18    30.18R
NORTHERLY ISL    N/A     50  29  44 SW8         N/A
$$

LMZ740>746-171600-
SOUTHERN LAKE MICHIGAN

STATION/POSITION SKY/WX   TEMP    WIND        PRES    VSBY  WAVE
                          AIR SEA DIR/SP/G                  HT/PER
                          (F)     (DEG/KT/KT) (MB)    (MI)  (FT/S)
WAUKEGAN HARBOR            49     230/ 16/ 23 1021.0S
HARRISON CRIB              48     210/ 20/ 26   N/A
BURNHAM HARBOR             51     250/  5/ 18   N/A
CALUMET HARBOR             50     200/ 17/ 22 1022.3S
MICHIGAN CITY              50     180/ 18/ 26   N/A
$$

ILZ025>027-034>036-040-047-049-050-058-095>099-171600-
WEST-CENTRAL ILLINOIS

CITY           SKY/WX    TMP DP  RH WIND       PRES   REMARKS
QUINCY         CLOUDY    46  36  68 NW12      30.23R
GALESBURG*     CLOUDY    44  37  77 W12       30.21R
MACOMB*        CLOUDY    45  36  70 NW13      30.24R
JACKSONVILLE*  MOSUNNY   53  33  46 W8        30.23R
PITTSFIELD*    PTSUNNY   50  37  62 NW6       30.24R
$$

ILZ028>032-037-038-041>044-048-051>054-059>061-171600-
CENTRAL ILLINOIS

CITY           SKY/WX    TMP DP  RH WIND       PRES   REMARKS
PONTIAC        SUNNY     54  36  50 SW14      30.19R
BLOOMINGTON    SUNNY     51  32  48 W14       30.21R
DECATUR        SUNNY     54  34  46 SW14      30.24R
PEORIA         MOSUNNY   51  37  58 W8        30.21R
LACON*         MOSUNNY   50  39  65 W9        30.18R
LINCOLN*       SUNNY     56  34  42 W5        30.22R
SPRINGFIELD    SUNNY     56  32  40 W15       30.22S
TAYLORVILLE    MOSUNNY   52  34  50 SW14      30.24R
$$

ILZ033-039-045-046-055>057-062-063-171600-
EAST-CENTRAL ILLINOIS

CITY           SKY/WX    TMP DP  RH WIND       PRES   REMARKS
CHAMPAIGN      SUNNY     57  34  41 SW18G26   30.23R
RANTOUL*       SUNNY     57  33  41 SW17      30.23R
MATTOON        SUNNY     54  35  48 SW12      30.25R
PARIS*         SUNNY     57  35  43 SW18      30.27R
$$

ILZ079-100>102-171600-
SOUTHWEST ILLINOIS

CITY           SKY/WX    TMP DP  RH WIND       PRES   REMARKS
ALTON          PTSUNNY   55  32  41 SW12      30.24R
BELLEVILLE     SUNNY     58  36  44 S10       30.25R
CAHOKIA*       SUNNY     57  35  43 S10       30.25R
SPARTA*        SUNNY     55  34  44 S9        30.28R
$$

ILZ064>066-069>071-074>076-080>082-084>086-088>090-092>094-171600-
SOUTH-CENTRAL ILLINOIS

CITY           SKY/WX    TMP DP  RH WIND       PRES   REMARKS
CARBONDALE     SUNNY     59  35  40 SW9       30.28S
CAIRO*         SUNNY     61  41  48 S10       30.31R
MARION         MOSUNNY   54  36  50 S12       30.30R
MT. VERNON     SUNNY     57  34  41 S13       30.29R
CENTRALIA*       N/A     57  33  40 SW13G18   30.27R
SALEM*         SUNNY     59  37  44 SW10      30.27R
METROPOLIS*    SUNNY     59  35  40 SW17      30.31R
$$

ILZ067-068-072-073-078-083-087-091-171600-
SOUTHEAST ILLINOIS

CITY           SKY/WX    TMP DP  RH WIND       PRES   REMARKS
FAIRFIELD*     SUNNY     57  39  51 S7        30.29S
HARRISBURG*    SUNNY     58  36  45 S8        30.32R
ROBINSON*      SUNNY     59  38  45 SW8       30.30S
CARMI*         SUNNY     57  41  55 S10       30.31S
$$

ABBREVIATIONS USED IN REMARKS
   TC - TEMPERATURE IN CELSIUS
  WCI - WIND CHILL INDEX
   HX - HEAT INDEX
  VSB - VISIBILITY
$$




USA.gov is the U.S. government's official web portal to all federal, state and local government web resources and services.